User: anonymous   Login
Location: Unspecified
(0.0000°N, 0.0000°E)
Time: 07:46:12
(UTC+00:00)
Language:

STARLINK-35631 - Orbit

View from above orbital plane
View from above orbital plane
View from above satellite
View from above satellite

Ground track
Ground track

The orbit is defined by the following mean orbital elements,

1 66121U          26145.40817237 +.00000000 +00000-0 +50524-3 0 00008
2 66121  53.1570  43.4737 0001023  82.9060 277.2057 15.30211422    09
Epoch (UTC): 25 May 2026 09:47:46
Eccentricity: 0.0001023
inclination: 53.1570°
perigee height: 474 km
apogee height: 476 km
right ascension of ascending node: 43.4737°
argument of perigee: 82.9060°
revolutions per day: 15.30211422
mean anomaly at epoch: 277.2057°

The dashed part of the orbit path shows where the satellite is in the earth's shadow,  

DLR